Temp
22 21 19 19 19 18 17 17 16 17 17 17 17 16 16 15 15 14 15 15 15 15 14 14 14 14 13 13 13 12 11 11
20 21 19 19 18 18 17 16 16 16 16 17 16 16 15 15 15 14 14 14 14 14 14 14 13 13 12 11 11 11 10 10
19 21 19 18 18 17 17 16 16 16 16 16 17 16 16 15 15 14 14 14 14 14 13 13 12 11 11 11 10 10 9 9
18 21 19 17 17 17 17 16 16 16 16 16 16 16 15 15 14 14 14 14 13 13 13 12 11 11 10 10 9 9 8 8
19 20 18 17 17 17 17 16 16 16 16 16 16 15 15 14 14 14 13 13 13 13 12 12 11 11 10 9 8 8 7 6
17 21 19 18 17 17 17 16 16 16 16 17 16 16 15 15 14 14 13 13 12 12 11 11 10 10 9 8 7 7 6 6
19 21 19 18 17 17 17 16 16 16 17 17 17 16 16 15 14 13 13 12 12 11 10 10 10 9 7 7 6 6 5 5
19 18 19 18 17 17 17 17 16 17 17 17 17 17 16 16 14 14 13 12 11 11 10 9 9 8 7 6 6 5 4 4
18 18 20 18 17 17 17 17 17 17 17 17 17 17 16 16 15 14 13 12 11 10 10 9 8 7 6 6 5 4 4 3
19 21 20 17 17 17 17 17 17 17 17 17 17 17 17 16 15 14 13 12 11 10 9 9 7 6 6 5 5 4 3 3
22 22 20 18 17 17 18 17 17 17 17 17 17 17 16 16 15 14 13 12 11 10 9 8 6 6 5 5 4 3 3 3
21 21 19 18 18 17 17 17 17 17 17 17 16 17 16 16 15 14 13 12 10 9 8 7 6 5 5 4 3 3 2 2
18 18 18 18 17 16 17 17 18 17 17 16 16 16 16 15 14 13 12 11 9 9 8 6 5 5 4 3 3 2 2 2
18 18 19 17 17 16 17 17 16 16 16 16 16 15 15 14 12 11 11 10 8 7 7 5 5 4 3 2 2 2 2 1
18 17 18 18 17 17 17 16 16 15 15 15 15 14 14 12 11 10 9 9 8 6 6 5 4 3 3 2 2 2 2 1
18 17 16 18 17 17 16 16 16 15 14 14 13 13 12 11 10 9 9 8 7 6 5 4 3 3 2 2 2 1 1 1
19 18 17 18 18 17 16 16 16 15 14 12 12 11 10 9 9 8 7 6 6 5 5 4 3 3 2 2 1 1 1 1
19 18 17 18 18 18 16 16 16 14 12 11 10 9 9 8 8 7 6 6 5 5 4 3 2 2 1 1 1 1 1 0
19 18 17 18 18 17 16 15 13 12 11 10 9 8 8 7 7 6 6 5 5 4 3 3 2 1 0 0 -0 -0 0 0
Height
821 825 829 835 839 847 853 857 857 858 863 868 872 874 877 879 882 885 887 889 891 892 893 894 894 894 894 895 894 894 893 892
835 823 828 833 839 845 850 854 857 856 860 864 869 872 876 879 882 885 887 889 891 892 893 894 894 894 895 895 895 895 893 891
830 822 823 829 838 843 849 852 854 856 860 864 868 871 875 878 881 884 887 889 891 892 893 893 894 895 895 896 895 895 895 893
828 827 823 826 832 836 846 850 851 854 859 863 867 870 873 876 879 883 886 889 891 891 892 893 894 894 895 896 896 896 896 895
825 829 824 825 827 832 839 847 849 852 857 859 862 864 868 872 877 881 885 888 890 890 892 893 894 895 895 896 897 896 895 895
807 813 816 819 821 826 836 842 847 850 856 857 859 862 866 871 876 880 884 887 889 890 891 892 894 895 895 896 897 896 895 895
792 805 816 818 821 828 830 837 843 848 853 856 857 861 865 868 873 878 882 886 888 889 890 892 893 894 896 897 896 896 895 896
796 802 806 808 815 821 825 830 838 845 848 852 855 858 861 864 869 874 879 883 886 887 889 891 893 894 895 897 896 896 896 897
789 793 796 803 811 817 823 825 831 839 844 849 852 856 859 861 864 869 873 878 881 884 886 890 892 893 894 896 896 896 896 897
780 787 796 802 805 808 813 821 826 833 840 844 848 853 855 857 862 866 869 874 878 881 884 888 890 893 894 896 896 896 897 897
775 779 787 794 801 806 810 816 820 826 836 840 844 849 853 857 861 863 867 871 875 879 883 886 889 892 894 895 895 896 896 897
770 773 780 787 795 799 806 812 816 822 829 836 842 847 851 854 857 860 863 868 873 877 881 884 888 890 893 895 895 895 896 896
774 775 780 787 792 798 800 806 810 816 823 832 838 843 846 849 853 856 860 866 872 876 879 883 886 889 892 894 894 895 895 896
773 778 781 786 791 794 798 802 807 813 820 827 834 838 842 845 848 854 860 865 870 875 878 882 886 889 891 893 893 894 895 895
772 775 778 782 786 791 796 800 806 812 819 825 828 833 839 843 848 853 859 863 868 874 878 881 885 888 890 892 893 893 894 895
768 773 775 779 783 788 792 797 803 808 815 821 824 830 835 841 847 852 858 863 868 873 877 881 883 886 888 890 890 891 893 893
762 766 770 775 779 783 789 794 799 805 810 815 822 828 833 839 845 852 857 861 866 872 876 879 881 884 886 888 888 890 891 891
757 761 765 772 777 781 786 791 796 801 807 814 820 824 830 838 843 850 855 859 865 870 874 876 879 882 884 885 886 888 889 890
751 756 761 768 774 780 785 790 795 799 806 813 818 822 829 836 841 848 855 859 863 868 872 875 878 881 883 884 885 886 888 888
Wind_Speed
31 32 38 41 38 33 31 30 26 26 23 24 21 22 19 16 15 16 16 14 10 9 9 9 6 7 9 9 10 14 18 14
11 34 36 41 39 36 35 33 29 30 24 28 24 26 23 18 13 15 14 14 10 7 9 6 5 7 9 10 10 11 18 17
19 28 38 39 41 39 37 34 31 31 25 28 26 27 21 19 15 15 13 12 12 7 12 11 8 9 7 8 9 10 12 19
9 21 34 36 39 41 39 36 33 32 28 26 26 26 22 24 20 18 15 13 9 10 9 10 13 9 6 7 7 10 10 11
14 20 31 35 37 40 40 37 35 32 32 30 31 27 27 26 23 20 15 14 12 10 9 10 8 6 4 6 6 8 7 11
22 27 36 35 39 41 40 37 36 33 33 31 33 29 26 26 23 21 18 15 13 11 11 10 8 6 6 5 5 8 8 9
29 27 31 32 33 37 40 39 36 35 32 32 32 30 28 29 26 26 22 18 14 13 13 11 7 7 6 4 4 7 7 8
17 17 26 33 36 38 39 41 38 37 31 32 33 29 29 32 32 29 26 22 19 17 15 12 7 9 6 3 4 6 8 8
20 21 31 33 35 39 36 40 38 38 33 31 33 29 26 34 35 31 27 26 23 21 17 10 10 9 6 5 4 6 7 6
22 25 29 32 37 41 39 39 37 38 37 30 34 31 21 36 33 28 28 30 28 24 18 13 12 9 7 4 2 6 5 5
6 25 30 36 38 39 38 39 39 40 38 34 32 31 22 30 29 31 32 32 31 26 18 14 12 10 9 7 6 5 5 4
3 18 30 36 36 39 35 36 38 39 41 37 28 29 23 26 31 30 34 35 31 23 18 15 13 10 8 7 4 5 5 5
6 17 27 30 29 33 36 37 39 43 43 38 33 27 27 26 30 35 35 32 25 21 17 15 15 12 9 8 9 5 4 3
8 10 18 23 27 30 31 32 35 38 42 36 32 32 29 31 35 35 32 28 23 19 17 19 15 11 8 6 6 5 3 2
7 8 11 23 27 29 29 31 36 37 38 35 33 33 32 35 35 33 29 25 22 20 20 18 14 12 10 9 7 5 3 2
9 8 7 18 24 27 28 34 36 37 35 34 35 34 35 36 34 31 27 23 22 22 22 17 16 15 14 12 11 8 4 2
11 9 11 16 25 27 30 31 34 34 33 35 36 36 36 36 33 29 25 24 25 24 20 19 18 14 9 9 9 9 6 1
14 13 15 20 22 26 30 32 34 35 35 36 36 37 37 35 32 28 27 28 26 22 20 21 17 13 7 6 6 10 6 2
14 15 21 26 24 24 30 33 33 34 32 33 35 37 38 34 30 29 29 28 26 24 23 21 17 11 7 6 7 8 4 4
Wind_Direction
154 157 155 162 166 167 170 172 163 160 157 158 158 155 154 157 161 156 152 138 129 139 114 95 88 66 64 59 48 46 36 16
277 155 157 162 168 168 171 171 169 166 164 160 157 153 155 159 163 164 157 150 129 128 125 109 68 73 64 59 50 41 31 19
281 158 158 162 168 172 172 174 173 173 168 168 170 162 161 168 165 160 160 167 150 140 144 105 117 101 75 57 41 47 44 36
229 181 165 164 168 171 176 178 176 176 173 170 173 164 164 163 166 166 175 169 158 162 147 130 123 116 90 67 54 49 54 48
180 198 176 170 170 170 177 181 177 180 180 182 179 168 166 172 168 172 177 165 165 172 157 147 159 135 116 69 60 52 57 57
176 207 177 175 168 171 177 182 182 183 189 193 183 176 172 172 171 175 174 167 174 159 160 172 154 137 113 82 64 60 59 64
185 192 173 170 168 171 176 181 186 190 197 191 182 177 178 175 175 175 170 168 163 162 172 175 159 133 119 97 65 60 68 65
170 189 170 173 170 171 175 180 187 193 199 193 187 185 187 183 178 175 169 169 165 172 184 170 165 141 135 126 96 58 66 75
188 197 181 172 168 172 177 179 185 192 196 189 189 188 191 185 183 180 179 183 180 182 184 179 157 149 147 151 116 92 77 78
189 193 180 171 172 177 177 180 183 190 195 191 192 192 201 186 185 187 184 183 179 182 180 172 162 156 149 174 114 95 100 81
139 181 170 175 177 178 179 182 180 188 191 193 191 194 190 190 187 184 185 179 180 175 174 176 164 155 151 152 134 102 116 92
62 147 166 169 174 177 177 178 179 185 190 191 187 197 196 187 188 186 180 177 175 175 176 167 161 162 165 173 161 126 118 106
84 139 155 164 167 175 177 177 183 186 188 187 191 191 194 190 180 173 173 174 173 174 167 160 163 171 172 169 144 133 131 116
119 132 155 161 172 175 175 179 180 181 183 185 188 190 185 177 171 169 171 169 169 168 161 160 171 172 165 161 147 136 126 179
157 157 171 163 173 174 176 175 181 178 181 185 184 178 173 171 169 169 169 171 168 164 161 168 170 163 155 164 153 143 149 167
168 169 178 161 165 170 171 172 178 182 177 179 176 170 172 169 167 169 169 168 165 163 167 168 169 172 174 178 168 156 160 216
171 171 172 175 173 170 173 175 181 175 169 165 168 168 168 169 168 170 167 162 162 169 174 171 179 187 194 195 189 179 153 235
178 178 168 169 166 166 168 176 174 164 158 158 159 161 164 170 168 166 163 164 170 174 173 180 182 179 184 184 173 177 172 154
177 168 162 165 158 158 157 155 154 153 153 156 158 161 163 167 166 167 168 172 175 173 178 182 180 174 171 165 145 145 170 275